Location: New Frontier Mobile Home Park
(32.8448°N, 116.9675°W)
Time: 23:04:44
(UTC+00:00)

SeaSat 1 - Pass Details

Date: 14 July 2020
Orbit: 744 x 747 km, 108.0° (Epoch: 05 August)

Event Time Altitude Azimuth Distance (km) Brightness Sun altitude
Rises 08:58:37 0° 31° (NNE) 3,193 6.7 -33.4°
Reaches altitude 10° 09:00:59 10° 38° (NE) 2,266 5.7 -33.3°
Enters shadow 09:03:53 32° 61° (ENE) 1,277 3.9 -33.1°
